Regional Weather Roundup
Issued by NWS

Home | Current Version | Previous Version | Graphics & Text | Print | Product List | Glossary On
Versions: 1 2 3 4 5 6 7 8 9 10 11 12 13 14 15 16 17 18 19 20 21 22 23 24 25 26 27 28 29 30 31 32 33 34 35 36 37 38 39 40 41 42 43 44 45 46 47 48 49 50
697
ASUS43 KDMX 160701
RWRIA

WEATHER ROUNDUP FOR IOWA
NATIONAL WEATHER SERVICE DES MOINES IA
100 AM CST MON JAN 16 2017

NOTE: "FAIR" INDICATES FEW OR NO CLOUDS BELOW 12,000 FEET WITH NO
SIGNIFICANT WEATHER AND/OR OBSTRUCTIONS TO VISIBILITY.

* - THESE STATIONS ARE NOT NWS STATIONS...THUS NOT UNDER NWS
QUALITY CONTROL.  THEY ALSO DO NOT REPORT WEATHER SUCH
AS PRECIPITATION OR FOG.

IAZ001>003-012>014-020>022-031>034-043>046-160800-
   NORTHWEST IOWA

CITY           SKY/WX    TMP DP  RH WIND       PRES   REMARKS
CARROLL *      CLOUDY    32  32 100 SE9       30.15F FOG     WCI  24
CHEROKEE *     MIX PCPN  30  29  98 CALM      30.15S
DENISON *      CLOUDY    32  32 100 SE6       30.12F FOG     WCI  26
LE MARS *      CLOUDY    30  27  86 CALM      30.15S
ORANGE CITY *  CLOUDY    28  25  86 CALM      30.13S
SHELDON *      CLOUDY    27  27 100 E7        30.12F WCI  19
SIOUX CITY     FRZ RAIN  32  30  92 E5        30.14F FOG     WCI  27
SPENCER        CLOUDY    27  22  81 CALM      30.15F
STORM LAKE *   MIX PCPN  28  28 100 SE7       30.13F WCI  21
$$

IAZ055>058-069>071-079>083-090>094-160800-
   SOUTHWEST IOWA

CITY           SKY/WX    TMP DP  RH WIND       PRES   REMARKS
ATLANTIC *     CLOUDY    32  32 100 VRB3      30.14S FOG
AUDUBON *      MIX PCPN  32  28  86 SE3       30.15S
CLARINDA *     CLOUDY    32  32 100 CALM      30.14F
COUNCIL BLFS * CLOUDY    32  32 100 E3        30.12F FOG
CRESTON *      MIX PCPN  32  32 100 E10       30.13F WCI  24
HARLAN  *      MIX PCPN  32  32 100 E7        30.17F WCI  26
LAMONI         CLOUDY    31  30  96 E6        30.12F FOG     WCI  25
RED OAK *      CLOUDY    32  32 100 E6        30.12F WCI  26
SHENANDOAH *   CLOUDY    32  32 100 CALM      30.13F
$$

IAZ047>049-059>061-072>074-084-160800-
   CENTRAL IOWA

CITY           SKY/WX    TMP DP  RH WIND       PRES   REMARKS
AMES           FRZ RAIN  30  30 100 SE7       30.19S FOG     WCI  23
ANKENY *       CLOUDY    30  28  93 SE8       30.20S FOG     WCI  23
BOONE *        CLOUDY    30  30 100 MISG      30.16F
CHARITON *     CLOUDY    30  30 100 SE7       30.17S FOG     WCI  23
DES MOINES     FRZ RAIN  31  28  89 SE9       30.18F FOG     WCI  23
GRINNELL*      MIX PCPN  29  28  93 E7        30.20F WCI  22
KNOXVILLE *    CLOUDY    30  28  93 SE7       30.18S FOG     WCI  23
MARSHALLTOWN   MIX PCPN  29  27  92 E9        30.20S FOG     WCI  20
NEWTON *       CLOUDY    28  28 100 E8        30.18F FOG     WCI  20
PELLA *        MIX PCPN  30  28  93 E6        30.20F WCI  24
PERRY *        DRIZZLE   31  31 100 E8        30.17F WCI  24
$$

IAZ004>006-015-016-023>025-035-036-160800-
   NORTH CENTRAL IOWA

CITY           SKY/WX    TMP DP  RH WIND       PRES   REMARKS
ALGONA *       MIX PCPN  28  25  86 SE8       30.17S WCI  20
CLARION *      CLOUDY    28  30 100 SE12      30.18S FOG     WCI  18
ESTHERVILLE    CLOUDY    24  22  91 NE3       30.16S
FORT DODGE *   CLOUDY    28  27  93 SE7       30.18S WCI  21
MASON CITY     CLOUDY    24  19  81 E5        30.21S WCI  18
FOREST CITY *  MIX PCPN  25  21  86 E3        30.19S
WEBSTER CITY * CLOUDY    30  30 100 SE10      30.16S FOG     WCI  21
IOWA FALLS *   MIX PCPN  30  27  87 SE9       30.19F WCI  22
$$

IAZ007>011-017>019-026>030-037>042-050>054-066-160800-
   NORTHEAST IOWA

CITY           SKY/WX    TMP DP  RH WIND       PRES   REMARKS
CEDAR RAPIDS   MIX PCPN  29  22  75 E5        30.21S WCI  24
CHARLES CITY * CLOUDY    27  21  80 SE8       30.21F WCI  18
CLINTON *      CLOUDY    30  27  88 E8        30.24F FOG     WCI  22
DECORAH *      CLOUDY    23  19  86 CALM      30.22S
DUBUQUE        CLOUDY    28  18  66 SE6       30.23F WCI  22
MONTICELLO *   CLOUDY    30  21  69 E5        30.23F WCI  25
OELWEIN *      CLOUDY    28  21  74 SE6       30.22S WCI  22
WATERLOO       MIX PCPN  29  23  78 SE8       30.22F WCI  21
$$

IAZ064-065-067-068-078-160800-
   EAST CENTRAL IOWA

CITY           SKY/WX    TMP DP  RH WIND       PRES   REMARKS
DAVENPORT      CLOUDY    31  26  82 E9        30.23F HAZE    WCI  23
IOWA CITY      MIX PCPN  32  26  78 E5        30.25R WCI  27
MUSCATINE *    CLOUDY    32  28  86 CALM      30.25R FOG
QUAD CITIES    CLOUDY    33  27  78 E7        30.23F HAZE    WCI  27
$$

IAZ062-063-075>077-085>089-095>099-160800-
   SOUTHEAST IOWA

CITY           SKY/WX    TMP DP  RH WIND       PRES   REMARKS
BURLINGTON     CLOUDY    32  30  92 E8        30.21F FOG     WCI  25
FAIRFIELD *    CLOUDY    30  27  86 E5        30.21R FOG     WCI  25
FORT MADISON * CLOUDY    32  28  86 E6        30.22R FOG     WCI  26
KEOKUK *       CLOUDY    32  32 100 E8        30.20S FOG     WCI  25
OSKALOOSA *    LGT RAIN  30  28  95 E10       30.20F WCI  21
CENTERVILLE *  LGT RAIN  30  30 100 CALM      30.18F
OTTUMWA        CLOUDY    30  27  88 E9        30.18F FOG     WCI  22
WASHINGTON *   CLOUDY    32  30  93 E7        30.23S FOG     WCI  26
$$

ABBREVIATIONS USED IN REMARKS
   TC - TEMPERATURES IN CELSIUS
  WCI - WIND CHILL INDEX
   HX - HEAT INDEX
  VSB - VISIBILITY
$$





USA.gov is the U.S. government's official web portal to all federal, state and local government web resources and services.